This is the latest recevied weather packets stored in our database for station/object NEWPRT. If no packets are shown the sender has not sent any weather packets the latest 10 day(s).
| Time | Temp. | Humidity | Pressure | Rain* | Wind** | Luminosity | Snow |
|---|---|---|---|---|---|---|---|
| 1777935095 | - | 60% | 1015.1 hPa | 0 mm | - | - | - |
| 1777934770 | - | 62% | 1015.2 hPa | 0 mm | - | - | - |
| 1777934447 | - | 63% | 1015.4 hPa | 0 mm | - | - | - |
| 1777934124 | - | 62% | 1015.4 hPa | 0 mm | - | - | - |
| 1777933801 | - | 61% | 1015.2 hPa | 0 mm | - | - | - |
| 1777933478 | - | 63% | 1015.3 hPa | 0 mm | - | - | - |
| 1777933155 | - | 62% | 1015.4 hPa | 0 mm | - | - | - |
| 1777932832 | - | 61% | 1015.6 hPa | 0 mm | - | - | - |
| 1777932509 | - | 62% | 1015.5 hPa | 0 mm | - | - | - |
| 1777932186 | - | 60% | 1015.3 hPa | 0 mm | - | - | - |
| 1777931863 | - | 63% | 1015.4 hPa | 0 mm | - | - | - |
| 1777931540 | - | 65% | 1015.5 hPa | 0 mm | - | - | - |
| 1777931218 | - | 64% | 1015.5 hPa | 0 mm | - | - | - |
| 1777930894 | - | 63% | 1015.4 hPa | 0 mm | - | - | - |
| 1777930571 | - | 64% | 1015.4 hPa | 0 mm | - | - | - |
| 1777930248 | - | 67% | 1015.5 hPa | 0 mm | - | - | - |
| 1777929925 | - | 69% | 1015.6 hPa | 0 mm | - | - | - |
| 1777929602 | - | 67% | 1015.5 hPa | 0 mm | - | - | - |
| 1777929279 | - | 71% | 1015.4 hPa | 0 mm | - | - | - |
| 1777928956 | - | 69% | 1015.5 hPa | 0 mm | - | - | - |
| 1777928633 | - | 70% | 1015.6 hPa | 0 mm | - | - | - |
| 1777928310 | - | 70% | 1015.5 hPa | 0 mm | - | - | - |
| 1777927987 | - | 69% | 1015.7 hPa | 0 mm | - | - | - |
| 1777927664 | - | 67% | 1015.6 hPa | 0 mm | - | - | - |
| 1777927341 | - | 70% | 1015.7 hPa | 0 mm | - | - | - |
* Rain latest hour (hover to see other rain measurements)
** Current wind speed in m/s (hover to see current wind gust speed)